Skip Page Navigation
NASA JPL Caltech
NASA Logo - Jet Propulsion Laboratory + View the NASA Portal
+ Center for Near-Earth Object Studies
JPL Home Earth Solar System Stars & Galaxies Technology
JPL Solar System Dynamics
BODIES ORBITS EPHEMERIDES TOOLS PHYSICAL DATA DISCOVERY FAQ SITE MAP
JPL Small-Body Database Browser
Search: [ help ]  
78913 (2003 SP99)
Classification: Main-belt Asteroid          SPK-ID: 2078913
Ephemeris | Orbit Diagram | Orbital Elements | Mission Design | Physical Parameters | Discovery Circumstances ]

[ show orbit diagram ]
Orbital Elements at Epoch 2459000.5 (2020-May-31.0) TDB
Reference: JPL 24 (heliocentric ecliptic J2000)
 Element Value Uncertainty (1-sigma)   Units 
e .06150207926108957 8.0052e-08  
a 2.947968248339265 2.1863e-08 au
q 2.766662071470728 2.3661e-07 au
i 11.44351161832601 7.0926e-06 deg
node 341.3318900418919 2.4144e-05 deg
peri 8.366695558386269 4.354e-05 deg
M 131.4417042106422 3.6571e-05 deg
tp 2458325.485177111423
(2018-Jul-25.98517711)
0.00018764 TDB
period 1848.768910135699
5.06
2.0567e-05
5.631e-08
d
yr
n .1947241745717025 2.1662e-09 deg/d
Q 3.129274425207802 2.3208e-08 au
  Orbit Determination Parameters
   # obs. used (total)      833  
   data-arc span      16045 days (43.93 yr)  
   first obs. used      1976-05-31  
   last obs. used      2020-05-05  
   planetary ephem.      DE431  
   SB-pert. ephem.      SB431-N16  
   condition code      0  
   norm. resid. RMS      .48781  
   source      ORB  
   producer      Otto Matic  
   solution date      2020-Nov-12 21:25:04  

Additional Information
 Earth MOID = 1.76017 au 
 Jupiter MOID = 2.2131 au 
 T_jup = 3.238 
[ show covariance matrix ]

Ephemeris | Orbit Diagram | Orbital Elements | Mission Design | Physical Parameters | Discovery Circumstances ]

Physical Parameter Table
Parameter Symbol Value Units Sigma Reference Notes
absolute magnitude H 14.4   n/a MPO459360  
diameter diameter 6.831 km 0.331 urn:nasa:pds:neowise_diameters_albedos::2.0[mainbelt] (http://adsabs.harvard.edu/abs/2011ApJ...741...68M)  
geometric albedo albedo 0.095   0.026 urn:nasa:pds:neowise_diameters_albedos::2.0[mainbelt] (http://adsabs.harvard.edu/abs/2011ApJ...741...68M)  

78913 (2003 SP99)          Discovered 2003-Sep-19 by NEAT at Haleakala
Reference: 20040415/Numbers.arcLast Updated: 2004-04-19

Alternate Designations
 2003 SP99 = 2001 FF150 
Ephemeris | Orbit Diagram | Orbital Elements | Mission Design | Physical Parameters | Discovery Circumstances ]
ABOUT SSD CREDITS/AWARDS PRIVACY/COPYRIGHT GLOSSARY LINKS
FirstGov 2020-Dec-03 05:01 UT
(server date/time)  
NASA Home Page
Site Manager:   Ryan S. Park
Webmaster  Alan B. Chamberlin